Weather in Amman

Jordan     31°57′19″N   35°53′44″E
temp.,
°C
wind,
m/s
gust,
m/s
humid.,
%
clouds,
%
prec.,
mm/h
press.,
hPa
HPBL,
m
26 february, fri
fri2623:00+8ne01900 0.0 102222
02:00+7e11900 0.0 102122
05:00+7e11870 0.0 102122
08:00+10se24640 0.0 1021266
11:00+14ese33440 0.0 1021784
14:00+16se11360 0.0 10191405
17:00+15ene22440 0.0 101828
20:00+12ne23480 0.0 101923
27 february, sat
sat2723:00+11e23550 0.0 101927
02:00+9e22600 0.0 101723
05:00+8e23570 0.0 101726
08:00+11ese36480 0.0 1017229
11:00+16se66310 0.0 1017896
14:00+17ese32250 0.0 10142172
17:00+16ene33330 0.0 101438
20:00+12ne23400 0.0 101424
28 february, sun
sun2823:00+11ne23510 0.0 101423
02:00+10nne22560 0.0 101423
05:00+8nne12600 0.0 101422
08:00+13sw01440 0.0 101684
11:00+15w43460 0.0 1016972
14:00+15wnw66460 0.0 1015971
17:00+12wnw67620 0.0 1015872
20:00+9wnw35881 0.0 1017202
1 march, mon
mon123:00+8w239112 0.0 101877
02:00+7w23919 0.0 101839
05:00+6w23958 0.0 101868
08:00+8w347926 0.0 1019465
11:00+11w55610 0.0 1019922
14:00+13w56592 0.0 10181173
17:00+11w566764 0.1 1017853
20:00+10w348150 0.1 1019293
2 march, tue
tue223:00+8w23870 0.0 101943
02:00+7wsw33890 0.0 101947
05:00+7wsw34910 0.0 101968
08:00+9wsw69790 0.0 1020597
11:00+13wsw78583 0.0 1019878
14:00+13wsw910542 0.0 10161147
17:00+11w89667 0.0 10161075
20:00+8sw59674 0.0 1017332